DECAYED

STARLINK-1398, 45699 (Decayed)

Orbit data source: Space-Track

STARLINK-1398, 45699 was a payload satellite owned by SpaceX/Seattle (US) in LEO that was launched on Thu, 04 Jun 2020 UTC via an FALCON 9 launch vehicle from the Air Force Eastern Test Range (AFETR). Payload-class satellites include a variety of spacecraft equipped with specific instruments for various scientific and technological missions. These include communications satellites like Starlink; space stations such as the ISS; scientific satellites like the Hubble; Earth observation satellites from companies like Planet Labs, Umbra, and HawkEye 360; GPS; miniature CubeSats for education and research; and military/defense satellites.

Not visible in the next 10 days
Identifier
45699, 2020-035AU
Orbit
Decayed
Country
Flag of USUS
Related business
Manufacturer
SpaceX/Seattle
Mission
Decayed Commercial Communications
Bus & Motor
STARLINK, Unknown motor
Mass
260 kg wet, ~248 kg dry
Launch date (UTC)
2020-06-04 (6 years ago)
Launch vehicle
FALCON 9
Launch site
Air Force Eastern Test Range (AFETR)
Object type
Payload
Rocket body
Debris
Shape & HBR
Box + 1 Pan, 10.1 m
Radar Cross Section
13.562 m², Large (>1 m²)

Expand to show TLE details & history
Last TLE update: 3 months ago

TLE from 3 months ago
0 STARLINK-1398
1 45699U 20035AU  26087.53736678  .12582851  12604-4  22835-3 0  9993
2 45699  53.0199 200.6293 0004240 298.8573  61.2050 16.47436163323559
Epoch: 2026-03-28T12:53Z
TLE epoch observation values (Epoch: 2026-03-28T12:53:48.489Z)
Latitude
-0.00008°
Longitude
-178.77898°
Altitude
145.693 km
Speed
7.821 km/s
True Right ascension
13h 22m 31s
True Declination
0° 00' 00"
Sunlit
Object was in full shadow at epoch
Visualization orbit readout
Latitude
Unknown
Longitude
Unknown
Altitude
Unknown
Speed
Unknown
Apparent Right ascension
Unknown
Apparent Declination
Unknown
Sunlit
N/A
Visualization observer readout
Local Sidereal Time
10:10:40
Azimuth
Unknown
Elevation
Unknown
Doppler factor
Unknown
Orbital elements
Apogee altitude
149.155 km
Perigee altitude
143.622 km
Semi-major axis
6,524.525 km
Eccentricity
0.00042
Inclination
53.0199°
RAAN
200.6293°
Arg. of periapsis
298.8573°
True anomaly
61.24759°
Mean anomaly
61.205°
Eccentric anomaly
61.22629°
Mean motion
4.11832 °/min
Orbital period
87.41 mins
BSTAR
0.00022835
Loading maneuver chart data...
Computing Atmospheric mass density...

Documentation

Showing up to 5 results
|